| time (UTC) | temp C | wind direction | speed KPH | gust KPH | rain 1hr cm | rain 24hr cm | rain mn cm | humidity % | barometer mb |
| 20260509123019 | 10 | 210 | 1.6 | 6.4 | 0.00 | 0.00 | 0.00 | 91 | 1003.8 |
| 20260509121510 | 10 | 226 | 0.0 | 4.8 | 0.00 | 0.00 | 0.00 | 91 | 1003.3 |
| 20260509120007 | 9 | 242 | 1.6 | 6.4 | 0.00 | 0.00 | 0.00 | 91 | 1003.2 |
| 20260509114506 | 10 | 246 | 1.6 | 8.0 | 0.00 | 0.00 | 0.00 | 91 | 1003.0 |
| 20260509113004 | 9 | 263 | 0.0 | 4.8 | 0.00 | 0.00 | 0.00 | 92 | 1003.0 |
| 20260509111501 | 9 | 227 | 1.6 | 6.4 | 0.00 | 0.00 | 0.00 | 92 | 1003.2 |
| 20260509110108 | 9 | 231 | 1.6 | 11.3 | 0.00 | 0.00 | 0.00 | 92 | 1003.1 |
| 20260509110001 | 9 | 257 | 1.6 | 11.3 | 0.00 | 0.00 | 0.00 | 92 | 1003.1 |
| 20260509104610 | 9 | 170 | 0.0 | 6.4 | 0.00 | 0.00 | 0.00 | 91 | 1003.2 |
| 20260509103057 | 9 | 151 | 1.6 | 6.4 | 0.00 | 0.00 | 0.00 | 91 | 1003.2 |
| 20260509101525 | 9 | 243 | 0.0 | 6.4 | 0.00 | 0.00 | 0.00 | 91 | 1003.2 |
| 20260509100024 | 9 | 230 | 0.0 | 4.8 | 0.00 | 0.00 | 0.00 | 91 | 1003.4 |
| 20260509094602 | 9 | 198 | 0.0 | 3.2 | 0.00 | 0.00 | 0.00 | 91 | 1003.7 |
| 20260509093052 | 9 | 253 | 0.0 | 4.8 | 0.00 | 0.00 | 0.00 | 91 | 1003.7 |
| 20260509091547 | 9 | 168 | 0.0 | 3.2 | 0.00 | 0.00 | 0.00 | 91 | 1003.9 |
| 20260509090056 | 9 | 162 | 0.0 | 1.6 | 0.00 | 0.00 | 0.00 | 90 | 1003.7 |
| 20260509084551 | 9 | 221 | 0.0 | 3.2 | 0.00 | 0.00 | 0.00 | 90 | 1003.7 |
| 20260509083047 | 9 | 285 | 0.0 | 3.2 | 0.00 | 0.00 | 0.00 | 90 | 1003.5 |
| 20260509081544 | 9 | 259 | 0.0 | 1.6 | 0.00 | 0.00 | 0.00 | 90 | 1003.7 |
| 20260509080036 | 9 | 242 | 0.0 | 1.6 | 0.00 | 0.00 | 0.00 | 89 | 1003.6 |
| 20260509074535 | 9 | 229 | 0.0 | 1.6 | 0.00 | 0.00 | 0.00 | 89 | 1003.9 |
| 20260509073031 | 10 | 217 | 0.0 | 1.6 | 0.00 | 0.00 | 0.00 | 88 | 1004.0 |
| 20260509071527 | 10 | 254 | 0.0 | 1.6 | 0.00 | 0.00 | 0.00 | 88 | 1004.0 |
| 20260509070023 | 10 | 249 | 0.0 | 1.6 | 0.00 | 0.00 | 0.00 | 87 | 1004.0 |
| 20260509064520 | 10 | 252 | 0.0 | 3.2 | 0.00 | 0.00 | 0.00 | 87 | 1004.2 |
| 20260509063016 | 11 | 241 | 0.0 | 1.6 | 0.00 | 0.00 | 0.00 | 86 | 1004.4 |
| 20260509061514 | 11 | 248 | 0.0 | 6.4 | 0.00 | 0.00 | 0.00 | 87 | 1004.7 |
| 20260509060011 | 11 | 239 | 0.0 | 3.2 | 0.00 | 0.00 | 0.00 | 86 | 1004.7 |
| 20260509054521 | 11 | 200 | 0.0 | 3.2 | 0.00 | 0.00 | 0.00 | 86 | 1004.6 |
| 20260509053013 | 11 | 244 | 0.0 | 3.2 | 0.00 | 0.00 | 0.00 | 86 | 1004.7 |
| 20260509051505 | 11 | 222 | 0.0 | 4.8 | 0.00 | 0.00 | 0.00 | 86 | 1004.7 |
| 20260509050005 | 11 | 224 | 0.0 | 3.2 | 0.00 | 0.00 | 0.00 | 85 | 1004.9 |
| 20260509044600 | 11 | 250 | 0.0 | 8.0 | 0.00 | 0.00 | 0.00 | 85 | 1005.0 |
| 20260509043059 | 12 | 250 | 0.0 | 4.8 | 0.00 | 0.00 | 0.00 | 84 | 1005.1 |
| 20260509041555 | 12 | 167 | 0.0 | 4.8 | 0.00 | 0.00 | 0.00 | 83 | 1005.1 |
| 20260509040109 | 12 | 266 | 0.0 | 3.2 | 0.00 | 0.00 | 0.00 | 83 | 1005.3 |
| 20260509034612 | 12 | 226 | 0.0 | 4.8 | 0.00 | 0.00 | 0.00 | 82 | 1005.5 |
| 20260509033049 | 12 | 248 | 0.0 | 3.2 | 0.00 | 0.00 | 0.00 | 80 | 1005.3 |
| 20260509031546 | 13 | 217 | 0.0 | 4.8 | 0.00 | 0.00 | 0.00 | 79 | 1005.5 |
| 20260509030042 | 13 | 162 | 0.0 | 3.2 | 0.00 | 0.00 | 0.00 | 78 | 1005.5 |
| 20260509024543 | 13 | 257 | 0.0 | 3.2 | 0.00 | 0.00 | 0.00 | 77 | 1005.6 |
| 20260509023045 | 13 | 240 | 0.0 | 4.8 | 0.00 | 0.00 | 0.00 | 77 | 1005.6 |
| 20260509021535 | 14 | 226 | 0.0 | 6.4 | 0.00 | 0.00 | 0.00 | 76 | 1005.5 |
| 20260509020002 | 14 | 160 | 1.6 | 8.0 | 0.00 | 0.00 | 0.00 | 75 | 1005.4 |
| 20260509014615 | 15 | 186 | 1.6 | 6.4 | 0.00 | 0.00 | 0.00 | 74 | 1005.1 |
| 20260509013110 | 15 | 251 | 1.6 | 8.0 | 0.00 | 0.00 | 0.00 | 72 | 1005.1 |
| 20260509011603 | 15 | 257 | 1.6 | 12.9 | 0.00 | 0.00 | 0.00 | 70 | 1005.1 |
| 20260509010051 | 15 | 231 | 0.0 | 3.2 | 0.00 | 0.00 | 0.00 | 67 | 1005.0 |
| 20260509004549 | 16 | 176 | 0.0 | 0.0 | 0.00 | 0.00 | 0.00 | 66 | 1005.0 |
| 20260509003106 | 16 | 230 | 0.0 | 1.6 | 0.00 | 0.00 | 0.00 | 65 | 1004.9 |
| 20260509001541 | 17 | 265 | 0.0 | 4.8 | 0.00 | 0.00 | 0.00 | 64 | 1004.9 |
| 20260509000039 | 17 | 252 | 0.0 | 9.7 | 0.00 | 0.00 | 0.00 | 63 | 1004.9 |
| 20260508234541 | 17 | 209 | 1.6 | 11.3 | 0.00 | 0.08 | 0.00 | 61 | 1004.9 |
| 20260508233036 | 18 | 157 | 3.2 | 8.0 | 0.00 | 0.08 | 0.00 | 61 | 1004.9 |
| 20260508231539 | 18 | 251 | 1.6 | 6.4 | 0.00 | 0.08 | 0.00 | 61 | 1005.0 |
| 20260508230034 | 18 | 203 | 0.0 | 6.4 | 0.00 | 0.08 | 0.00 | 59 | 1005.1 |
| 20260508224536 | 18 | 270 | 1.6 | 8.0 | 0.00 | 0.08 | 0.00 | 59 | 1005.1 |
| 20260508223030 | 18 | 146 | 1.6 | 12.9 | 0.00 | 0.08 | 0.00 | 57 | 1005.1 |
| 20260508221529 | 20 | 190 | 3.2 | 8.0 | 0.00 | 0.08 | 0.00 | 55 | 1005.2 |
| 20260508220029 | 20 | 139 | 0.0 | 4.8 | 0.00 | 0.08 | 0.00 | 56 | 1005.1 |
| 20260508214527 | 20 | 252 | 3.2 | 8.0 | 0.00 | 0.08 | 0.00 | 56 | 1005.3 |
| 20260508213023 | 20 | 245 | 0.0 | 6.4 | 0.00 | 0.08 | 0.00 | 57 | 1005.4 |
| 20260508211527 | 20 | 259 | 0.0 | 6.4 | 0.00 | 0.08 | 0.00 | 57 | 1005.5 |
| 20260508210019 | 20 | 122 | 0.0 | 8.0 | 0.00 | 0.08 | 0.00 | 58 | 1005.6 |
| 20260508204519 | 20 | 262 | 0.0 | 4.8 | 0.00 | 0.08 | 0.00 | 60 | 1005.7 |
| 20260508203014 | 19 | 246 | 0.0 | 6.4 | 0.00 | 0.08 | 0.00 | 58 | 1006.0 |
| 20260508201510 | 19 | 245 | 0.0 | 6.4 | 0.00 | 0.08 | 0.00 | 56 | 1006.3 |
| 20260508200009 | 20 | 229 | 1.6 | 6.4 | 0.00 | 0.08 | 0.00 | 54 | 1006.6 |
| 20260508194507 | 20 | 87 | 0.0 | 4.8 | 0.00 | 0.08 | 0.00 | 58 | 1006.7 |
| 20260508193111 | 19 | 97 | 0.0 | 3.2 | 0.00 | 0.08 | 0.00 | 61 | 1006.8 |
| 20260508191558 | 19 | 137 | 0.0 | 3.2 | 0.00 | 0.08 | 0.00 | 61 | 1006.9 |
| 20260508190100 | 18 | 142 | 0.0 | 4.8 | 0.00 | 0.08 | 0.00 | 60 | 1007.1 |
| 20260508190058 | 18 | 142 | 0.0 | 6.4 | 0.00 | 0.08 | 0.00 | 60 | 1007.1 |
| 20260508184602 | 18 | 226 | 1.6 | 4.8 | 0.00 | 0.08 | 0.00 | 59 | 1007.3 |
| 20260508183102 | 18 | 254 | 0.0 | 4.8 | 0.00 | 0.08 | 0.00 | 61 | 1007.6 |
| 20260508181546 | 17 | 231 | 0.0 | 4.8 | 0.00 | 0.08 | 0.00 | 63 | 1007.6 |
| 20260508180045 | 17 | 155 | 0.0 | 6.4 | 0.00 | 0.08 | 0.00 | 62 | 1007.8 |
| 20260508174558 | 18 | 62 | 3.2 | 8.0 | 0.00 | 0.08 | 0.00 | 63 | 1008.0 |
| 20260508173040 | 17 | 132 | 0.0 | 6.4 | 0.00 | 0.08 | 0.00 | 66 | 1008.2 |
| 20260508171535 | 17 | 233 | 0.0 | 9.7 | 0.00 | 0.08 | 0.00 | 65 | 1008.6 |
| 20260508170035 | 17 | 87 | 0.0 | 3.2 | 0.00 | 0.08 | 0.00 | 65 | 1008.7 |
| 20260508164529 | 17 | 259 | 0.0 | 6.4 | 0.00 | 0.08 | 0.08 | 67 | 1009.0 |
| 20260508163041 | 17 | 243 | 3.2 | 6.4 | 0.00 | 0.08 | 0.08 | 66 | 1009.2 |
| 20260508161557 | 17 | 94 | 0.0 | 4.8 | 0.00 | 0.08 | 0.08 | 67 | 1009.3 |
| 20260508160054 | 17 | 343 | 0.0 | 4.8 | 0.00 | 0.08 | 0.08 | 68 | 1009.4 |
| 20260508154521 | 17 | 248 | 0.0 | 8.0 | 0.00 | 0.08 | 0.08 | 69 | 1009.6 |
| 20260508153026 | 16 | 203 | 0.0 | 3.2 | 0.00 | 0.08 | 0.08 | 68 | 1009.8 |
| 20260508151547 | 16 | 249 | 0.0 | 6.4 | 0.00 | 0.08 | 0.08 | 71 | 1009.7 |
| 20260508150044 | 16 | 247 | 0.0 | 6.4 | 0.00 | 0.08 | 0.08 | 72 | 1009.8 |
| 20260508144539 | 15 | 131 | 0.0 | 8.0 | 0.00 | 0.08 | 0.08 | 75 | 1009.9 |
| 20260508143037 | 14 | 250 | 0.0 | 4.8 | 0.00 | 0.08 | 0.08 | 78 | 1010.0 |
| 20260508141535 | 13 | 210 | 0.0 | 3.2 | 0.00 | 0.08 | 0.08 | 81 | 1010.1 |
| 20260508140034 | 12 | 224 | 0.0 | 8.0 | 0.00 | 0.08 | 0.08 | 82 | 1010.2 |
| 20260508134537 | 12 | 245 | 0.0 | 1.6 | 0.00 | 0.08 | 0.08 | 84 | 1010.2 |
| 20260508133041 | 11 | 255 | 0.0 | 1.6 | 0.00 | 0.08 | 0.08 | 85 | 1010.2 |
| 20260508131529 | 10 | 223 | 0.0 | 1.6 | 0.00 | 0.08 | 0.08 | 86 | 1010.3 |
| 20260508130028 | 10 | 37 | 0.0 | 3.2 | 0.00 | 0.08 | 0.08 | 86 | 1010.2 |
| 20260508124527 | 9 | 41 | 0.0 | 1.6 | 0.00 | 0.08 | 0.08 | 87 | 1010.4 |